Starlink 2338

operational
NORAD ID: 47793 Int'l Des: 2021-018 Owner: SPXS Country: US Constellation: starlink
LEOCIRCULARSTARLINK_TYPE

Starlink 2338について

説明を読み込み中...

リアルタイム位置

3D地球を読み込み中...

次回通過

高度履歴

Altitude vs Time

uPlot chart will show altitude changes over time

軌道要素

1 47793U 21018G 25348.92605809 -.00000328 00000-0 -31139-5 0 9990
2 47793 53.0550 252.1377 0001634 87.4022 272.7154 15.06380418264099
Epoch: Dec 14, 2025 • Age: 24 hours

現在のステータス

高度 547.3 km
速度 7.59 km/s
衛星直下点 21.09°N, 153.83°W
打ち上げ日 Mar 11, 2021
運用期間 4.7 years
タイプ internet

技術仕様

分類 Payload
質量 260.00 kg
乾燥質量 248.00 kg
総質量 260.00 kg
長さ 0.20 m
直径 2.80 m
スパン 9.00 m
形状 Box + pan
製造者 SPXS
バスタイプ Starlink
フェーズステータス In Orbit
所有者/国 SPXS/US

大規模コンステレーション

Loading constellations...